Location: Ellingshausen
(50.5460°N, 10.4723°E)
Time: 00:50:09
(UTC+00:00)

Cosmos 1633 Rocket - Pass Details

Date: 18 January 2026
Orbit: 600 x 616 km, 82.5° (Epoch: 18 February)

Event Time Altitude Azimuth Distance (km) Brightness Sun altitude
Rises 06:22:26 0° 214° (SW) 2,857 6.4 -7.6°
Reaches altitude 10° 06:24:49 10° 224° (SW) 1,956 5.4 -7.2°
Maximum altitude 06:28:43 32° 289° (WNW) 1,046 3.7 -6.7°
Drops below altitude 10° 06:32:38 10° 353° (N) 1,962 5.3 -6.1°
Sets 06:35:03 0° 4° (N) 2,868 6.3 -5.8°
